Time,TemperatureF,DewpointF,PressureIn,WindDirection,WindDirectionDegrees,WindSpeedMPH,WindSpeedGustMPH,Humidity,HourlyPrecipIn,Conditions,Clouds,dailyrainin,SolarRadiationWatts/m^2,SoftwareType,DateUTC
2013-07-18 00:00:00,78.5,72.9,29.98,SSW,197,14.0,17.0,83,0.00,,,0.00,0,HR-IXPWINDi_r2_v1.2.,2013-07-18 04:00:00,
2013-07-18 00:01:00,78.5,72.9,29.98,SSW,202,13.0,17.0,83,0.00,,,0.00,0,HR-IXPWINDi_r2_v1.2.,2013-07-18 04:01:00,
2013-07-18 00:06:00,78.4,72.8,29.97,SSW,200,14.0,17.0,83,0.00,,,0.00,0,HR-IXPWINDi_r2_v1.2.,2013-07-18 04:06:00,
2013-07-18 00:11:00,78.3,72.7,29.97,South,190,17.0,17.0,83,0.00,,,0.00,0,HR-IXPWINDi_r2_v1.2.,2013-07-18 04:11:00,
2013-07-18 00:16:00,78.2,72.6,29.96,South,189,18.0,18.0,83,0.00,,,0.00,0,HR-IXPWINDi_r2_v1.2.,2013-07-18 04:16:00,
2013-07-18 00:21:00,78.1,72.8,29.97,SSW,201,15.0,19.0,84,0.00,,,0.00,0,HR-IXPWINDi_r2_v1.2.,2013-07-18 04:21:00,
2013-07-18 00:26:00,78.1,72.8,29.97,SSW,207,14.0,19.0,84,0.00,,,0.00,0,HR-IXPWINDi_r2_v1.2.,2013-07-18 04:26:00,
2013-07-18 00:31:00,78.4,73.1,29.98,SSW,211,13.0,19.0,84,0.00,,,0.00,0,HR-IXPWINDi_r2_v1.2.,2013-07-18 04:31:00,
2013-07-18 00:37:00,78.5,73.2,29.99,SSW,208,12.0,17.0,84,0.00,,,0.00,0,HR-IXPWINDi_r2_v1.2.,2013-07-18 04:37:00,
2013-07-18 00:42:00,78.5,73.2,29.99,SSW,206,12.0,15.0,84,0.00,,,0.00,0,HR-IXPWINDi_r2_v1.2.,2013-07-18 04:42:00,
2013-07-18 00:47:00,78.6,73.3,29.99,SSW,209,8.0,14.0,84,0.00,,,0.00,0,HR-IXPWINDi_r2_v1.2.,2013-07-18 04:47:00,
2013-07-18 00:52:00,78.7,73.8,29.99,SW,225,8.0,13.0,85,0.00,,,0.00,0,HR-IXPWINDi_r2_v1.2.,2013-07-18 04:52:00,
2013-07-18 00:58:00,79.1,73.4,29.99,WSW,239,8.0,14.0,83,0.00,,,0.00,0,HR-IXPWINDi_r2_v1.2.,2013-07-18 04:58:00,
2013-07-18 01:03:00,79.5,73.1,29.99,SW,232,13.0,17.0,81,0.00,,,0.00,0,HR-IXPWINDi_r2_v1.2.,2013-07-18 05:03:00,
2013-07-18 01:08:00,79.7,73.3,29.99,SW,217,14.0,17.0,81,0.00,,,0.00,0,HR-IXPWINDi_r2_v1.2.,2013-07-18 05:08:00,
2013-07-18 01:13:00,79.7,73.3,29.99,SW,233,9.0,15.0,81,0.00,,,0.00,0,HR-IXPWINDi_r2_v1.2.,2013-07-18 05:13:00,
2013-07-18 01:18:00,79.6,73.2,29.99,SW,219,10.0,15.0,81,0.00,,,0.00,0,HR-IXPWINDi_r2_v1.2.,2013-07-18 05:18:00,
2013-07-18 01:24:00,79.5,73.5,29.99,SW,215,12.0,15.0,82,0.00,,,0.00,0,HR-IXPWINDi_r2_v1.2.,2013-07-18 05:24:00,
2013-07-18 01:29:00,79.4,73.4,29.99,SW,217,13.0,15.0,82,0.00,,,0.00,0,HR-IXPWINDi_r2_v1.2.,2013-07-18 05:29:00,
2013-07-18 01:34:00,79.4,73.4,29.98,SW,221,12.0,16.0,82,0.00,,,0.00,0,HR-IXPWINDi_r2_v1.2.,2013-07-18 05:34:00,
2013-07-18 01:39:00,79.4,73.4,29.98,SW,220,14.0,16.0,82,0.00,,,0.00,0,HR-IXPWINDi_r2_v1.2.,2013-07-18 05:39:00,
2013-07-18 01:44:00,79.3,73.6,29.98,SW,229,13.0,16.0,83,0.00,,,0.00,0,HR-IXPWINDi_r2_v1.2.,2013-07-18 05:44:00,
2013-07-18 01:50:00,79.2,73.5,29.97,SW,223,12.0,16.0,83,0.00,,,0.00,0,HR-IXPWINDi_r2_v1.2.,2013-07-18 05:50:00,
2013-07-18 01:55:00,79.0,73.7,29.98,South,189,9.0,16.0,84,0.00,,,0.00,0,HR-IXPWINDi_r2_v1.2.,2013-07-18 05:55:00,
2013-07-18 02:00:00,78.9,73.6,29.98,SSW,202,9.0,14.0,84,0.00,,,0.00,0,HR-IXPWINDi_r2_v1.2.,2013-07-18 06:00:00,
2013-07-18 02:05:00,78.8,73.5,29.97,SW,232,7.0,12.0,84,0.00,,,0.00,0,HR-IXPWINDi_r2_v1.2.,2013-07-18 06:05:00,
2013-07-18 02:10:00,78.8,73.1,29.98,WSW,240,7.0,12.0,83,0.00,,,0.00,0,HR-IXPWINDi_r2_v1.2.,2013-07-18 06:10:00,
2013-07-18 02:15:00,78.9,73.2,29.98,WNW,285,1.0,10.0,83,0.00,,,0.00,0,HR-IXPWINDi_r2_v1.2.,2013-07-18 06:15:00,
2013-07-18 02:21:00,79.0,73.3,29.97,SW,224,4.0,9.0,83,0.00,,,0.00,0,HR-IXPWINDi_r2_v1.2.,2013-07-18 06:21:00,
2013-07-18 02:26:00,79.0,73.3,29.97,SSW,211,7.0,8.0,83,0.00,,,0.00,0,HR-IXPWINDi_r2_v1.2.,2013-07-18 06:26:00,
2013-07-18 02:31:00,79.0,73.7,29.97,SSW,212,8.0,9.0,84,0.00,,,0.00,0,HR-IXPWINDi_r2_v1.2.,2013-07-18 06:31:00,
2013-07-18 02:36:00,78.9,73.6,29.96,SSW,198,10.0,10.0,84,0.00,,,0.00,0,HR-IXPWINDi_r2_v1.2.,2013-07-18 06:36:00,
2013-07-18 02:41:00,78.8,73.5,29.96,SSW,202,9.0,10.0,84,0.00,,,0.00,0,HR-IXPWINDi_r2_v1.2.,2013-07-18 06:41:00,
2013-07-18 02:47:00,78.8,73.5,29.96,SSW,207,8.0,11.0,84,0.00,,,0.00,0,HR-IXPWINDi_r2_v1.2.,2013-07-18 06:47:00,
2013-07-18 02:52:00,78.8,73.5,29.95,SW,214,9.0,11.0,84,0.00,,,0.00,0,HR-IXPWINDi_r2_v1.2.,2013-07-18 06:52:00,
2013-07-18 02:57:00,78.7,73.4,29.95,SSW,207,8.0,11.0,84,0.00,,,0.00,0,HR-IXPWINDi_r2_v1.2.,2013-07-18 06:57:00,
2013-07-18 03:02:00,78.6,73.7,29.95,SW,218,10.0,11.0,85,0.00,,,0.00,0,HR-IXPWINDi_r2_v1.2.,2013-07-18 07:02:00,
2013-07-18 03:07:00,78.6,73.7,29.95,SW,215,9.0,11.0,85,0.00,,,0.00,0,HR-IXPWINDi_r2_v1.2.,2013-07-18 07:07:00,
2013-07-18 03:13:00,78.6,73.7,29.95,SW,217,8.0,11.0,85,0.00,,,0.00,0,HR-IXPWINDi_r2_v1.2.,2013-07-18 07:13:00,
2013-07-18 03:18:00,78.6,73.7,29.95,SW,227,8.0,10.0,85,0.00,,,0.00,0,HR-IXPWINDi_r2_v1.2.,2013-07-18 07:18:00,
2013-07-18 03:23:00,78.6,73.7,29.94,SW,217,8.0,10.0,85,0.00,,,0.00,0,HR-IXPWINDi_r2_v1.2.,2013-07-18 07:23:00,
2013-07-18 03:28:00,78.6,73.7,29.94,SW,215,9.0,10.0,85,0.00,,,0.00,0,HR-IXPWINDi_r2_v1.2.,2013-07-18 07:28:00,
2013-07-18 03:34:00,78.6,73.7,29.94,WSW,238,6.0,10.0,85,0.00,,,0.00,0,HR-IXPWINDi_r2_v1.2.,2013-07-18 07:34:00,
2013-07-18 03:39:00,78.5,73.2,29.94,SSW,196,5.0,9.0,84,0.00,,,0.00,0,HR-IXPWINDi_r2_v1.2.,2013-07-18 07:39:00,
2013-07-18 03:44:00,78.5,73.6,29.94,SW,221,7.0,8.0,85,0.00,,,0.00,0,HR-IXPWINDi_r2_v1.2.,2013-07-18 07:44:00,
2013-07-18 03:49:00,78.5,73.9,29.94,SSW,212,7.0,8.0,86,0.00,,,0.00,0,HR-IXPWINDi_r2_v1.2.,2013-07-18 07:49:00,
2013-07-18 03:55:00,78.3,73.7,29.94,SW,215,7.0,8.0,86,0.00,,,0.00,0,HR-IXPWINDi_r2_v1.2.,2013-07-18 07:55:00,
2013-07-18 04:00:00,78.2,73.6,29.94,SW,221,7.0,9.0,86,0.00,,,0.00,0,HR-IXPWINDi_r2_v1.2.,2013-07-18 08:00:00,
2013-07-18 04:05:00,78.1,73.5,29.94,SSW,206,7.0,9.0,86,0.00,,,0.00,0,HR-IXPWINDi_r2_v1.2.,2013-07-18 08:05:00,
2013-07-18 04:10:00,78.0,73.4,29.94,SW,219,6.0,9.0,86,0.00,,,0.00,0,HR-IXPWINDi_r2_v1.2.,2013-07-18 08:10:00,
2013-07-18 04:15:00,78.0,73.4,29.94,WSW,237,6.0,8.0,86,0.00,,,0.00,0,HR-IXPWINDi_r2_v1.2.,2013-07-18 08:15:00,
2013-07-18 04:21:00,78.3,73.4,29.94,WSW,242,5.0,8.0,85,0.00,,,0.00,0,HR-IXPWINDi_r2_v1.2.,2013-07-18 08:21:00,
2013-07-18 04:26:00,78.4,73.1,29.95,SW,233,4.0,8.0,84,0.00,,,0.00,0,HR-IXPWINDi_r2_v1.2.,2013-07-18 08:26:00,
2013-07-18 04:31:00,78.7,73.0,29.95,WSW,249,3.0,7.0,83,0.00,,,0.00,0,HR-IXPWINDi_r2_v1.2.,2013-07-18 08:31:00,
2013-07-18 04:36:00,78.9,73.2,29.95,WSW,244,1.0,6.0,83,0.00,,,0.00,0,HR-IXPWINDi_r2_v1.2.,2013-07-18 08:36:00,
2013-07-18 04:41:00,78.9,72.9,29.95,WNW,284,3.0,6.0,82,0.00,,,0.00,0,HR-IXPWINDi_r2_v1.2.,2013-07-18 08:41:00,
2013-07-18 04:46:00,79.1,73.1,29.95,WSW,240,4.0,6.0,82,0.00,,,0.00,0,HR-IXPWINDi_r2_v1.2.,2013-07-18 08:46:00,
2013-07-18 04:51:00,79.2,73.2,29.95,SW,233,1.0,6.0,82,0.00,,,0.00,0,HR-IXPWINDi_r2_v1.2.,2013-07-18 08:51:00,
2013-07-18 04:57:00,79.3,73.3,29.95,SSW,209,3.0,6.0,82,0.00,,,0.00,0,HR-IXPWINDi_r2_v1.2.,2013-07-18 08:57:00,
2013-07-18 05:02:00,79.3,73.3,29.95,SW,219,4.0,7.0,82,0.00,,,0.00,0,HR-IXPWINDi_r2_v1.2.,2013-07-18 09:02:00,
2013-07-18 05:07:00,79.1,73.4,29.95,WSW,237,5.0,7.0,83,0.00,,,0.00,0,HR-IXPWINDi_r2_v1.2.,2013-07-18 09:07:00,
2013-07-18 05:12:00,78.9,73.2,29.95,SW,231,3.0,6.0,83,0.00,,,0.00,0,HR-IXPWINDi_r2_v1.2.,2013-07-18 09:12:00,
2013-07-18 05:17:00,78.8,72.8,29.95,SW,233,2.0,5.0,82,0.00,,,0.00,0,HR-IXPWINDi_r2_v1.2.,2013-07-18 09:17:00,
2013-07-18 05:23:00,78.9,72.9,29.96,SW,226,2.0,5.0,82,0.00,,,0.00,0,HR-IXPWINDi_r2_v1.2.,2013-07-18 09:23:00,
2013-07-18 05:28:00,78.9,73.2,29.96,SSW,211,3.0,4.0,83,0.00,,,0.00,0,HR-IXPWINDi_r2_v1.2.,2013-07-18 09:28:00,
2013-07-18 05:33:00,78.6,73.7,29.96,WSW,250,4.0,6.0,85,0.00,,,0.00,0,HR-IXPWINDi_r2_v1.2.,2013-07-18 09:33:00,
2013-07-18 05:38:00,78.4,73.1,29.96,SW,229,2.0,6.0,84,0.00,,,0.00,7,HR-IXPWINDi_r2_v1.2.,2013-07-18 09:38:00,
2013-07-18 05:44:00,78.7,73.0,29.96,SW,214,1.0,5.0,83,0.00,,,0.00,9,HR-IXPWINDi_r2_v1.2.,2013-07-18 09:44:00,
2013-07-18 05:49:00,78.6,72.9,29.97,WNW,293,2.0,5.0,83,0.00,,,0.00,12,HR-IXPWINDi_r2_v1.2.,2013-07-18 09:49:00,
2013-07-18 05:54:00,78.7,73.0,29.97,WNW,283,3.0,4.0,83,0.00,,,0.00,18,HR-IXPWINDi_r2_v1.2.,2013-07-18 09:54:00,
2013-07-18 05:59:00,78.8,72.8,29.97,West,271,2.0,4.0,82,0.00,,,0.00,23,HR-IXPWINDi_r2_v1.2.,2013-07-18 09:59:00,
2013-07-18 06:04:00,78.9,72.9,29.97,WSW,241,2.0,4.0,82,0.00,,,0.00,30,HR-IXPWINDi_r2_v1.2.,2013-07-18 10:04:00,
2013-07-18 06:09:00,78.9,72.9,29.97,SW,232,4.0,4.0,82,0.00,,,0.00,30,HR-IXPWINDi_r2_v1.2.,2013-07-18 10:09:00,
2013-07-18 06:15:00,79.0,73.0,29.97,WSW,255,1.0,8.0,82,0.00,,,0.00,49,HR-IXPWINDi_r2_v1.2.,2013-07-18 10:15:00,
2013-07-18 06:20:00,79.1,73.1,29.97,WSW,254,5.0,8.0,82,0.00,,,0.00,65,HR-IXPWINDi_r2_v1.2.,2013-07-18 10:20:00,
2013-07-18 06:25:00,79.2,73.2,29.97,WNW,298,3.0,7.0,82,0.00,,,0.00,77,HR-IXPWINDi_r2_v1.2.,2013-07-18 10:25:00,
2013-07-18 06:31:00,79.3,73.3,29.97,WNW,296,2.0,6.0,82,0.00,,,0.00,90,HR-IXPWINDi_r2_v1.2.,2013-07-18 10:31:00,
2013-07-18 06:36:00,79.4,73.4,29.97,WNW,290,5.0,6.0,82,0.00,,,0.00,104,HR-IXPWINDi_r2_v1.2.,2013-07-18 10:36:00,
2013-07-18 06:41:00,79.5,73.5,29.97,West,275,1.0,6.0,82,0.00,,,0.00,121,HR-IXPWINDi_r2_v1.2.,2013-07-18 10:41:00,
2013-07-18 06:46:00,79.7,73.3,29.97,SSW,201,3.0,6.0,81,0.00,,,0.00,137,HR-IXPWINDi_r2_v1.2.,2013-07-18 10:46:00,
2013-07-18 06:52:00,79.8,73.4,29.97,WNW,284,4.0,6.0,81,0.00,,,0.00,149,HR-IXPWINDi_r2_v1.2.,2013-07-18 10:52:00,
2013-07-18 06:57:00,80.0,73.6,29.97,West,261,0.0,6.0,81,0.00,,,0.00,167,HR-IXPWINDi_r2_v1.2.,2013-07-18 10:57:00,
2013-07-18 07:02:00,80.2,73.8,29.98,WNW,293,0.0,5.0,81,0.00,,,0.00,183,HR-IXPWINDi_r2_v1.2.,2013-07-18 11:02:00,
2013-07-18 07:07:00,80.5,73.7,29.98,WNW,282,1.0,5.0,80,0.00,,,0.00,192,HR-IXPWINDi_r2_v1.2.,2013-07-18 11:07:00,
2013-07-18 07:12:00,80.8,74.0,29.98,NW,315,3.0,7.0,80,0.00,,,0.00,207,HR-IXPWINDi_r2_v1.2.,2013-07-18 11:12:00,
2013-07-18 07:18:00,81.2,74.0,29.98,West,265,2.0,8.0,79,0.00,,,0.00,221,HR-IXPWINDi_r2_v1.2.,2013-07-18 11:18:00,
2013-07-18 07:23:00,81.3,74.1,29.98,NW,317,4.0,8.0,79,0.00,,,0.00,234,HR-IXPWINDi_r2_v1.2.,2013-07-18 11:23:00,
2013-07-18 07:28:00,81.6,74.0,29.98,WNW,300,3.0,6.0,78,0.00,,,0.00,255,HR-IXPWINDi_r2_v1.2.,2013-07-18 11:28:00,
2013-07-18 07:33:00,81.9,74.3,29.98,NW,320,1.0,7.0,78,0.00,,,0.00,272,HR-IXPWINDi_r2_v1.2.,2013-07-18 11:33:00,
2013-07-18 07:38:00,82.1,74.1,29.99,ENE,58,3.0,10.0,77,0.00,,,0.00,290,HR-IXPWINDi_r2_v1.2.,2013-07-18 11:38:00,
2013-07-18 07:43:00,82.4,74.4,29.99,NNE,26,1.0,10.0,77,0.00,,,0.00,306,HR-IXPWINDi_r2_v1.2.,2013-07-18 11:43:00,
2013-07-18 07:49:00,83.2,74.4,29.99,NNE,19,5.0,7.0,75,0.00,,,0.00,318,HR-IXPWINDi_r2_v1.2.,2013-07-18 11:49:00,
2013-07-18 07:54:00,83.4,73.8,29.98,NNW,336,4.0,10.0,73,0.00,,,0.00,336,HR-IXPWINDi_r2_v1.2.,2013-07-18 11:54:00,
2013-07-18 07:59:00,83.4,73.8,29.98,North,5,6.0,11.0,73,0.00,,,0.00,353,HR-IXPWINDi_r2_v1.2.,2013-07-18 11:59:00,
2013-07-18 08:04:00,83.7,74.1,29.98,NNW,328,3.0,11.0,73,0.00,,,0.00,367,HR-IXPWINDi_r2_v1.2.,2013-07-18 12:04:00,
2013-07-18 08:09:00,83.7,74.1,29.98,NW,314,2.0,10.0,73,0.00,,,0.00,383,HR-IXPWINDi_r2_v1.2.,2013-07-18 12:09:00,
2013-07-18 08:14:00,84.1,74.9,29.98,North,9,0.0,10.0,74,0.00,,,0.00,399,HR-IXPWINDi_r2_v1.2.,2013-07-18 12:14:00,
2013-07-18 08:20:00,84.4,74.3,29.98,NNW,338,2.0,5.0,72,0.00,,,0.00,418,HR-IXPWINDi_r2_v1.2.,2013-07-18 12:20:00,
2013-07-18 08:25:00,85.0,74.5,29.98,NNE,22,5.0,7.0,71,0.00,,,0.00,434,HR-IXPWINDi_r2_v1.2.,2013-07-18 12:25:00,
2013-07-18 08:30:00,85.3,73.9,29.98,North,350,7.0,9.0,69,0.00,,,0.00,448,HR-IXPWINDi_r2_v1.2.,2013-07-18 12:30:00,
2013-07-18 08:36:00,85.7,74.3,29.98,NNE,20,5.0,9.0,69,0.00,,,0.00,461,HR-IXPWINDi_r2_v1.2.,2013-07-18 12:36:00,
2013-07-18 08:41:00,85.7,73.4,29.99,North,9,4.0,12.0,67,0.00,,,0.00,476,HR-IXPWINDi_r2_v1.2.,2013-07-18 12:41:00,
2013-07-18 08:46:00,85.8,74.0,29.98,NE,44,5.0,12.0,68,0.00,,,0.00,492,HR-IXPWINDi_r2_v1.2.,2013-07-18 12:46:00,
2013-07-18 08:51:00,85.9,73.6,29.99,North,10,7.0,11.0,67,0.00,,,0.00,504,HR-IXPWINDi_r2_v1.2.,2013-07-18 12:51:00,
2013-07-18 08:56:00,86.0,74.2,29.99,NNW,339,6.0,11.0,68,0.00,,,0.00,520,HR-IXPWINDi_r2_v1.2.,2013-07-18 12:56:00,
2013-07-18 09:01:00,86.3,74.4,29.99,NNW,347,5.0,9.0,68,0.00,,,0.00,538,HR-IXPWINDi_r2_v1.2.,2013-07-18 13:01:00,
2013-07-18 09:06:00,86.7,74.4,29.99,NNW,329,6.0,10.0,67,0.00,,,0.00,547,HR-IXPWINDi_r2_v1.2.,2013-07-18 13:06:00,
2013-07-18 09:12:00,86.4,74.1,29.99,NE,41,8.0,12.0,67,0.00,,,0.00,559,HR-IXPWINDi_r2_v1.2.,2013-07-18 13:12:00,
2013-07-18 09:17:00,86.4,74.5,29.99,NNE,26,6.0,12.0,68,0.00,,,0.00,575,HR-IXPWINDi_r2_v1.2.,2013-07-18 13:17:00,
2013-07-18 09:22:00,86.8,74.5,29.99,North,5,5.0,12.0,67,0.00,,,0.00,584,HR-IXPWINDi_r2_v1.2.,2013-07-18 13:22:00,
2013-07-18 09:28:00,86.6,73.8,29.99,NNE,30,6.0,11.0,66,0.00,,,0.00,605,HR-IXPWINDi_r2_v1.2.,2013-07-18 13:28:00,
2013-07-18 09:33:00,87.0,73.8,29.99,NNW,346,6.0,12.0,65,0.00,,,0.00,606,HR-IXPWINDi_r2_v1.2.,2013-07-18 13:33:00,
2013-07-18 09:38:00,86.8,73.6,29.99,NNW,338,6.0,13.0,65,0.00,,,0.00,621,HR-IXPWINDi_r2_v1.2.,2013-07-18 13:38:00,
2013-07-18 09:43:00,87.2,73.5,29.99,NNW,331,5.0,13.0,64,0.00,,,0.00,643,HR-IXPWINDi_r2_v1.2.,2013-07-18 13:43:00,
2013-07-18 09:48:00,87.2,73.0,29.99,NE,34,6.0,13.0,63,0.00,,,0.00,649,HR-IXPWINDi_r2_v1.2.,2013-07-18 13:48:00,
2013-07-18 09:53:00,87.6,73.4,29.99,WNW,287,5.0,13.0,63,0.00,,,0.00,661,HR-IXPWINDi_r2_v1.2.,2013-07-18 13:53:00,
2013-07-18 09:59:00,87.9,73.2,29.99,NNE,19,6.0,9.0,62,0.00,,,0.00,675,HR-IXPWINDi_r2_v1.2.,2013-07-18 13:59:00,
2013-07-18 10:04:00,88.0,73.3,29.99,NNW,348,2.0,10.0,62,0.00,,,0.00,691,HR-IXPWINDi_r2_v1.2.,2013-07-18 14:04:00,
2013-07-18 10:09:00,88.5,72.8,29.99,NNE,22,8.0,15.0,60,0.00,,,0.00,701,HR-IXPWINDi_r2_v1.2.,2013-07-18 14:09:00,
2013-07-18 10:14:00,88.2,72.0,30.00,NNE,21,8.0,15.0,59,0.00,,,0.00,715,HR-IXPWINDi_r2_v1.2.,2013-07-18 14:14:00,
2013-07-18 10:19:00,88.2,72.5,30.00,North,355,7.0,13.0,60,0.00,,,0.00,719,HR-IXPWINDi_r2_v1.2.,2013-07-18 14:19:00,
2013-07-18 10:25:00,88.5,72.8,29.99,NW,320,5.0,11.0,60,0.00,,,0.00,731,HR-IXPWINDi_r2_v1.2.,2013-07-18 14:25:00,
2013-07-18 10:30:00,89.1,72.9,30.00,NE,34,6.0,8.0,59,0.00,,,0.00,737,HR-IXPWINDi_r2_v1.2.,2013-07-18 14:30:00,
2013-07-18 10:35:00,89.1,71.8,30.00,NNE,26,9.0,12.0,57,0.00,,,0.00,763,HR-IXPWINDi_r2_v1.2.,2013-07-18 14:35:00,
2013-07-18 10:40:00,88.2,73.0,30.00,NE,40,4.0,13.0,61,0.00,,,0.00,791,HR-IXPWINDi_r2_v1.2.,2013-07-18 14:40:00,
2013-07-18 10:45:00,86.1,72.9,30.00,ENE,76,8.0,14.0,65,0.00,,,0.00,773,HR-IXPWINDi_r2_v1.2.,2013-07-18 14:45:00,
2013-07-18 10:50:00,85.4,73.1,30.00,ENE,72,5.0,14.0,67,0.00,,,0.00,779,HR-IXPWINDi_r2_v1.2.,2013-07-18 14:50:00,
2013-07-18 10:55:00,85.5,73.7,30.00,East,94,2.0,10.0,68,0.00,,,0.00,791,HR-IXPWINDi_r2_v1.2.,2013-07-18 14:55:00,
2013-07-18 11:01:00,85.1,73.3,30.00,SE,130,7.0,12.0,68,0.00,,,0.00,798,HR-IXPWINDi_r2_v1.2.,2013-07-18 15:01:00,
2013-07-18 11:06:00,84.7,73.4,30.00,East,88,3.0,12.0,69,0.00,,,0.00,798,HR-IXPWINDi_r2_v1.2.,2013-07-18 15:06:00,
2013-07-18 11:11:00,84.3,73.0,30.00,East,86,5.0,9.0,69,0.00,,,0.00,803,HR-IXPWINDi_r2_v1.2.,2013-07-18 15:11:00,
2013-07-18 11:16:00,84.7,72.5,30.00,ENE,76,9.0,10.0,67,0.00,,,0.00,812,HR-IXPWINDi_r2_v1.2.,2013-07-18 15:16:00,
2013-07-18 11:21:00,85.3,71.7,30.00,ENE,58,0.0,11.0,64,0.00,,,0.00,816,HR-IXPWINDi_r2_v1.2.,2013-07-18 15:21:00,
2013-07-18 11:27:00,87.0,71.9,30.00,ENE,59,3.0,11.0,61,0.00,,,0.00,826,HR-IXPWINDi_r2_v1.2.,2013-07-18 15:27:00,
2013-07-18 11:32:00,85.9,71.3,30.00,ENE,71,12.0,15.0,62,0.00,,,0.00,833,HR-IXPWINDi_r2_v1.2.,2013-07-18 15:32:00,
2013-07-18 11:37:00,84.8,70.8,30.01,ENE,59,14.0,16.0,63,0.00,,,0.00,835,HR-IXPWINDi_r2_v1.2.,2013-07-18 15:37:00,
2013-07-18 11:42:00,83.5,70.9,30.01,ENE,71,7.0,16.0,66,0.00,,,0.00,840,HR-IXPWINDi_r2_v1.2.,2013-07-18 15:42:00,
2013-07-18 11:47:00,83.6,71.0,30.01,NE,46,5.0,16.0,66,0.00,,,0.00,844,HR-IXPWINDi_r2_v1.2.,2013-07-18 15:47:00,
2013-07-18 11:52:00,83.9,70.8,30.01,East,79,13.0,16.0,65,0.00,,,0.00,851,HR-IXPWINDi_r2_v1.2.,2013-07-18 15:52:00,
2013-07-18 11:57:00,83.4,70.4,30.01,East,94,10.0,16.0,65,0.00,,,0.00,849,HR-IXPWINDi_r2_v1.2.,2013-07-18 15:57:00,
2013-07-18 12:03:00,84.0,70.5,30.01,NE,37,4.0,16.0,64,0.00,,,0.00,861,HR-IXPWINDi_r2_v1.2.,2013-07-18 16:03:00,
2013-07-18 12:08:00,83.9,70.4,30.01,East,93,8.0,15.0,64,0.00,,,0.00,861,HR-IXPWINDi_r2_v1.2.,2013-07-18 16:08:00,
2013-07-18 12:13:00,84.0,70.9,30.01,North,355,5.0,15.0,65,0.00,,,0.00,858,HR-IXPWINDi_r2_v1.2.,2013-07-18 16:13:00,
2013-07-18 12:18:00,84.4,71.3,30.01,ENE,57,8.0,14.0,65,0.00,,,0.00,838,HR-IXPWINDi_r2_v1.2.,2013-07-18 16:18:00,
2013-07-18 12:23:00,84.4,70.8,30.01,ENE,61,11.0,13.0,64,0.00,,,0.00,867,HR-IXPWINDi_r2_v1.2.,2013-07-18 16:23:00,
2013-07-18 12:28:00,83.2,71.1,30.01,ENE,69,12.0,14.0,67,0.00,,,0.00,872,HR-IXPWINDi_r2_v1.2.,2013-07-18 16:28:00,
2013-07-18 12:34:00,82.3,70.6,30.01,ENE,75,13.0,15.0,68,0.00,,,0.00,867,HR-IXPWINDi_r2_v1.2.,2013-07-18 16:34:00,
2013-07-18 12:39:00,82.9,71.2,30.01,NNE,30,3.0,15.0,68,0.00,,,0.00,872,HR-IXPWINDi_r2_v1.2.,2013-07-18 16:39:00,
2013-07-18 12:44:00,82.6,70.0,30.01,ESE,108,11.0,16.0,66,0.00,,,0.00,874,HR-IXPWINDi_r2_v1.2.,2013-07-18 16:44:00,
2013-07-18 12:49:00,82.0,70.8,30.01,ENE,69,8.0,16.0,69,0.00,,,0.00,870,HR-IXPWINDi_r2_v1.2.,2013-07-18 16:49:00,
2013-07-18 12:54:00,82.7,71.0,30.01,ENE,69,4.0,16.0,68,0.00,,,0.00,867,HR-IXPWINDi_r2_v1.2.,2013-07-18 16:54:00,
2013-07-18 12:59:00,83.2,71.1,30.01,NE,52,4.0,15.0,67,0.00,,,0.00,872,HR-IXPWINDi_r2_v1.2.,2013-07-18 16:59:00,
2013-07-18 13:05:00,83.9,70.8,30.01,NNE,18,6.0,15.0,65,0.00,,,0.00,858,HR-IXPWINDi_r2_v1.2.,2013-07-18 17:05:00,
2013-07-18 13:10:00,83.3,70.3,30.01,ENE,58,8.0,16.0,65,0.00,,,0.00,844,HR-IXPWINDi_r2_v1.2.,2013-07-18 17:10:00,
2013-07-18 13:15:00,82.3,70.2,30.01,NE,51,9.0,16.0,67,0.00,,,0.00,814,HR-IXPWINDi_r2_v1.2.,2013-07-18 17:15:00,
2013-07-18 13:20:00,82.7,71.0,30.01,NNE,28,2.0,15.0,68,0.00,,,0.00,840,HR-IXPWINDi_r2_v1.2.,2013-07-18 17:20:00,
2013-07-18 13:25:00,83.6,71.0,30.01,ENE,78,3.0,13.0,66,0.00,,,0.00,870,HR-IXPWINDi_r2_v1.2.,2013-07-18 17:25:00,
2013-07-18 13:30:00,82.6,70.5,30.01,ENE,66,14.0,14.0,67,0.00,,,0.00,858,HR-IXPWINDi_r2_v1.2.,2013-07-18 17:30:00,
2013-07-18 13:35:00,82.6,70.9,30.01,ESE,104,11.0,14.0,68,0.00,,,0.00,860,HR-IXPWINDi_r2_v1.2.,2013-07-18 17:35:00,
2013-07-18 13:40:00,81.7,70.9,30.00,East,90,11.0,14.0,70,0.00,,,0.00,854,HR-IXPWINDi_r2_v1.2.,2013-07-18 17:40:00,
2013-07-18 13:46:00,80.7,70.8,30.00,East,94,3.0,13.0,72,0.00,,,0.00,853,HR-IXPWINDi_r2_v1.2.,2013-07-18 17:46:00,
2013-07-18 13:51:00,80.9,71.4,30.00,East,100,3.0,11.0,73,0.00,,,0.00,831,HR-IXPWINDi_r2_v1.2.,2013-07-18 17:51:00,
2013-07-18 13:57:00,80.9,71.0,30.00,East,88,8.0,13.0,72,0.00,,,0.00,837,HR-IXPWINDi_r2_v1.2.,2013-07-18 17:57:00,
2013-07-18 14:02:00,81.1,71.6,30.00,ENE,61,5.0,13.0,73,0.00,,,0.00,837,HR-IXPWINDi_r2_v1.2.,2013-07-18 18:02:00,
2013-07-18 14:07:00,81.7,71.7,30.00,ESE,115,4.0,13.0,72,0.00,,,0.00,835,HR-IXPWINDi_r2_v1.2.,2013-07-18 18:07:00,
2013-07-18 14:12:00,81.2,71.3,30.00,SE,131,4.0,11.0,72,0.00,,,0.00,826,HR-IXPWINDi_r2_v1.2.,2013-07-18 18:12:00,
2013-07-18 14:17:00,81.0,71.5,30.00,SE,138,4.0,11.0,73,0.00,,,0.00,821,HR-IXPWINDi_r2_v1.2.,2013-07-18 18:17:00,
2013-07-18 14:22:00,81.8,72.2,30.00,NE,34,1.0,11.0,73,0.00,,,0.00,812,HR-IXPWINDi_r2_v1.2.,2013-07-18 18:22:00,
2013-07-18 14:27:00,82.5,71.7,30.00,SE,144,6.0,9.0,70,0.00,,,0.00,810,HR-IXPWINDi_r2_v1.2.,2013-07-18 18:27:00,
2013-07-18 14:32:00,80.9,71.4,30.00,SE,142,1.0,12.0,73,0.00,,,0.00,803,HR-IXPWINDi_r2_v1.2.,2013-07-18 18:32:00,
2013-07-18 14:37:00,80.5,71.4,30.00,SSE,160,3.0,12.0,74,0.00,,,0.00,795,HR-IXPWINDi_r2_v1.2.,2013-07-18 18:37:00,
2013-07-18 14:42:00,80.4,71.3,30.00,ESE,110,4.0,9.0,74,0.00,,,0.00,788,HR-IXPWINDi_r2_v1.2.,2013-07-18 18:42:00,
2013-07-18 14:47:00,80.2,71.1,30.00,SE,140,8.0,9.0,74,0.00,,,0.00,780,HR-IXPWINDi_r2_v1.2.,2013-07-18 18:47:00,
2013-07-18 14:53:00,80.2,71.5,30.00,SE,128,0.0,11.0,75,0.00,,,0.00,770,HR-IXPWINDi_r2_v1.2.,2013-07-18 18:53:00,
2013-07-18 14:58:00,80.0,70.5,30.00,SE,131,10.0,11.0,73,0.00,,,0.00,761,HR-IXPWINDi_r2_v1.2.,2013-07-18 18:58:00,
2013-07-18 15:03:00,79.9,70.4,30.00,SE,134,7.0,12.0,73,0.00,,,0.00,752,HR-IXPWINDi_r2_v1.2.,2013-07-18 19:03:00,
2013-07-18 15:08:00,80.4,71.3,30.00,SE,144,4.0,12.0,74,0.00,,,0.00,744,HR-IXPWINDi_r2_v1.2.,2013-07-18 19:08:00,
2013-07-18 15:13:00,82.1,71.7,29.99,SE,142,4.0,12.0,71,0.00,,,0.00,729,HR-IXPWINDi_r2_v1.2.,2013-07-18 19:13:00,
2013-07-18 15:18:00,81.4,70.6,29.99,SE,138,9.0,10.0,70,0.00,,,0.00,726,HR-IXPWINDi_r2_v1.2.,2013-07-18 19:18:00,
2013-07-18 15:23:00,79.9,70.8,29.99,SE,142,5.0,13.0,74,0.00,,,0.00,712,HR-IXPWINDi_r2_v1.2.,2013-07-18 19:23:00,
2013-07-18 15:28:00,79.3,70.6,29.99,East,101,6.0,14.0,75,0.00,,,0.00,694,HR-IXPWINDi_r2_v1.2.,2013-07-18 19:28:00,
2013-07-18 15:33:00,80.2,71.9,29.99,SE,136,2.0,14.0,76,0.00,,,0.00,682,HR-IXPWINDi_r2_v1.2.,2013-07-18 19:33:00,
2013-07-18 15:39:00,81.0,71.9,29.99,SE,127,2.0,11.0,74,0.00,,,0.00,675,HR-IXPWINDi_r2_v1.2.,2013-07-18 19:39:00,
2013-07-18 15:44:00,80.8,72.1,29.98,SSE,150,0.0,10.0,75,0.00,,,0.00,661,HR-IXPWINDi_r2_v1.2.,2013-07-18 19:44:00,
2013-07-18 15:49:00,80.2,71.1,29.98,SE,129,2.0,9.0,74,0.00,,,0.00,652,HR-IXPWINDi_r2_v1.2.,2013-07-18 19:49:00,
2013-07-18 15:54:00,80.5,71.4,29.97,ESE,122,2.0,9.0,74,0.00,,,0.00,636,HR-IXPWINDi_r2_v1.2.,2013-07-18 19:54:00,
2013-07-18 15:59:00,80.3,71.2,29.97,ESE,118,5.0,9.0,74,0.00,,,0.00,628,HR-IXPWINDi_r2_v1.2.,2013-07-18 19:59:00,
2013-07-18 16:04:00,79.1,70.8,29.97,SE,129,5.0,9.0,76,0.00,,,0.00,612,HR-IXPWINDi_r2_v1.2.,2013-07-18 20:04:00,
2013-07-18 16:09:00,79.1,71.2,29.96,South,179,3.0,9.0,77,0.00,,,0.00,599,HR-IXPWINDi_r2_v1.2.,2013-07-18 20:09:00,
2013-07-18 16:14:00,80.1,71.8,29.96,ESE,102,0.0,8.0,76,0.00,,,0.00,594,HR-IXPWINDi_r2_v1.2.,2013-07-18 20:14:00,
2013-07-18 16:20:00,79.5,71.2,29.97,ESE,109,2.0,10.0,76,0.00,,,0.00,578,HR-IXPWINDi_r2_v1.2.,2013-07-18 20:20:00,
2013-07-18 16:25:00,79.3,71.0,29.97,SE,145,5.0,10.0,76,0.00,,,0.00,571,HR-IXPWINDi_r2_v1.2.,2013-07-18 20:25:00,
2013-07-18 16:30:00,79.3,71.0,29.97,ESE,105,5.0,9.0,76,0.00,,,0.00,557,HR-IXPWINDi_r2_v1.2.,2013-07-18 20:30:00,
2013-07-18 16:35:00,78.6,70.3,29.97,ESE,104,3.0,10.0,76,0.00,,,0.00,552,HR-IXPWINDi_r2_v1.2.,2013-07-18 20:35:00,
2013-07-18 16:41:00,78.2,70.3,29.97,SE,128,6.0,10.0,77,0.00,,,0.00,534,HR-IXPWINDi_r2_v1.2.,2013-07-18 20:41:00,
2013-07-18 16:46:00,77.7,70.2,29.97,East,91,5.0,10.0,78,0.00,,,0.00,519,HR-IXPWINDi_r2_v1.2.,2013-07-18 20:46:00,
2013-07-18 16:51:00,77.9,70.8,29.97,ESE,105,4.0,10.0,79,0.00,,,0.00,490,HR-IXPWINDi_r2_v1.2.,2013-07-18 20:51:00,
2013-07-18 16:56:00,78.0,70.9,29.97,East,88,2.0,9.0,79,0.00,,,0.00,485,HR-IXPWINDi_r2_v1.2.,2013-07-18 20:56:00,
2013-07-18 17:01:00,78.3,71.2,29.97,ESE,105,4.0,9.0,79,0.00,,,0.00,489,HR-IXPWINDi_r2_v1.2.,2013-07-18 21:01:00,
2013-07-18 17:06:00,78.7,71.6,29.98,East,89,7.0,8.0,79,0.00,,,0.00,111,HR-IXPWINDi_r2_v1.2.,2013-07-18 21:06:00,
2013-07-18 17:11:00,78.1,70.6,29.98,East,94,2.0,10.0,78,0.00,,,0.00,125,HR-IXPWINDi_r2_v1.2.,2013-07-18 21:11:00,
2013-07-18 17:17:00,78.3,71.2,29.97,ENE,69,3.0,10.0,79,0.00,,,0.00,142,HR-IXPWINDi_r2_v1.2.,2013-07-18 21:17:00,
2013-07-18 17:22:00,78.2,71.1,29.96,SE,134,3.0,5.0,79,0.00,,,0.00,137,HR-IXPWINDi_r2_v1.2.,2013-07-18 21:22:00,
2013-07-18 17:27:00,76.9,70.6,29.96,ESE,106,4.0,10.0,81,0.00,,,0.00,167,HR-IXPWINDi_r2_v1.2.,2013-07-18 21:27:00,
2013-07-18 17:32:00,76.7,70.7,29.97,SE,132,2.0,10.0,82,0.00,,,0.00,218,HR-IXPWINDi_r2_v1.2.,2013-07-18 21:32:00,
2013-07-18 17:37:00,76.3,70.3,29.97,SSE,151,4.0,9.0,82,0.00,,,0.00,163,HR-IXPWINDi_r2_v1.2.,2013-07-18 21:37:00,
2013-07-18 17:42:00,76.2,70.6,29.96,East,99,2.0,9.0,83,0.00,,,0.00,153,HR-IXPWINDi_r2_v1.2.,2013-07-18 21:42:00,
2013-07-18 17:47:00,76.1,70.5,29.96,East,90,5.0,9.0,83,0.00,,,0.00,149,HR-IXPWINDi_r2_v1.2.,2013-07-18 21:47:00,
2013-07-18 17:53:00,75.8,70.6,29.96,SE,138,5.0,9.0,84,0.00,,,0.00,151,HR-IXPWINDi_r2_v1.2.,2013-07-18 21:53:00,
2013-07-18 17:58:00,76.2,70.6,29.95,SE,125,5.0,9.0,83,0.00,,,0.00,156,HR-IXPWINDi_r2_v1.2.,2013-07-18 21:58:00,
2013-07-18 18:03:00,76.0,70.0,29.96,ESE,107,5.0,9.0,82,0.00,,,0.00,155,HR-IXPWINDi_r2_v1.2.,2013-07-18 22:03:00,
2013-07-18 18:08:00,75.7,70.1,29.95,SE,133,5.0,9.0,83,0.00,,,0.00,142,HR-IXPWINDi_r2_v1.2.,2013-07-18 22:08:00,
2013-07-18 18:13:00,75.7,70.1,29.95,East,96,3.0,9.0,83,0.00,,,0.00,132,HR-IXPWINDi_r2_v1.2.,2013-07-18 22:13:00,
2013-07-18 18:18:00,76.2,70.6,29.96,East,92,6.0,10.0,83,0.00,,,0.00,120,HR-IXPWINDi_r2_v1.2.,2013-07-18 22:18:00,
2013-07-18 18:24:00,76.3,70.7,29.96,NE,55,6.0,11.0,83,0.00,,,0.00,114,HR-IXPWINDi_r2_v1.2.,2013-07-18 22:24:00,
2013-07-18 18:29:00,76.3,70.7,29.96,SE,132,2.0,11.0,83,0.00,,,0.00,109,HR-IXPWINDi_r2_v1.2.,2013-07-18 22:29:00,
2013-07-18 18:34:00,75.8,70.6,29.96,East,84,7.0,9.0,84,0.00,,,0.00,102,HR-IXPWINDi_r2_v1.2.,2013-07-18 22:34:00,
2013-07-18 18:39:00,75.4,70.2,29.96,East,81,0.0,9.0,84,0.00,,,0.00,91,HR-IXPWINDi_r2_v1.2.,2013-07-18 22:39:00,
2013-07-18 18:44:00,75.2,70.3,29.96,ENE,72,8.0,9.0,85,0.00,,,0.00,83,HR-IXPWINDi_r2_v1.2.,2013-07-18 22:44:00,
2013-07-18 18:49:00,75.1,70.2,29.96,East,83,0.0,10.0,85,0.00,,,0.00,72,HR-IXPWINDi_r2_v1.2.,2013-07-18 22:49:00,
2013-07-18 18:54:00,75.0,70.1,29.96,ENE,73,4.0,10.0,85,0.00,,,0.00,62,HR-IXPWINDi_r2_v1.2.,2013-07-18 22:54:00,
2013-07-18 19:00:00,75.1,70.6,29.97,East,94,2.0,10.0,86,0.00,,,0.00,54,HR-IXPWINDi_r2_v1.2.,2013-07-18 23:00:00,
2013-07-18 19:05:00,75.3,70.8,29.97,ESE,112,7.0,10.0,86,0.00,,,0.00,47,HR-IXPWINDi_r2_v1.2.,2013-07-18 23:05:00,
2013-07-18 19:10:00,75.4,70.5,29.97,ESE,103,10.0,10.0,85,0.00,,,0.00,42,HR-IXPWINDi_r2_v1.2.,2013-07-18 23:10:00,
2013-07-18 19:15:00,75.4,70.5,29.97,East,80,8.0,10.0,85,0.00,,,0.00,39,HR-IXPWINDi_r2_v1.2.,2013-07-18 23:15:00,
2013-07-18 19:20:00,75.2,70.3,29.97,East,90,5.0,10.0,85,0.00,,,0.00,32,HR-IXPWINDi_r2_v1.2.,2013-07-18 23:20:00,
2013-07-18 19:25:00,75.3,70.4,29.97,NE,47,3.0,9.0,85,0.00,,,0.00,26,HR-IXPWINDi_r2_v1.2.,2013-07-18 23:25:00,
2013-07-18 19:30:00,75.3,70.4,29.97,NE,49,4.0,8.0,85,0.00,,,0.00,23,HR-IXPWINDi_r2_v1.2.,2013-07-18 23:30:00,
2013-07-18 19:35:00,75.2,70.7,29.97,East,89,5.0,9.0,86,0.00,,,0.00,23,HR-IXPWINDi_r2_v1.2.,2013-07-18 23:35:00,
2013-07-18 19:41:00,75.0,70.5,29.96,ESE,107,3.0,9.0,86,0.00,,,0.00,14,HR-IXPWINDi_r2_v1.2.,2013-07-18 23:41:00,
2013-07-18 19:46:00,74.8,70.6,29.96,SE,129,3.0,9.0,87,0.00,,,0.00,11,HR-IXPWINDi_r2_v1.2.,2013-07-18 23:46:00,
2013-07-18 19:51:00,74.9,70.7,29.97,NE,55,0.0,9.0,87,0.00,,,0.00,7,HR-IXPWINDi_r2_v1.2.,2013-07-18 23:51:00,
2013-07-18 19:56:00,75.1,70.9,29.97,NE,49,0.0,6.0,87,0.00,,,0.00,0,HR-IXPWINDi_r2_v1.2.,2013-07-18 23:56:00,
2013-07-18 20:02:00,74.9,70.7,29.96,ESE,123,1.0,7.0,87,0.00,,,0.00,0,HR-IXPWINDi_r2_v1.2.,2013-07-19 00:02:00,
2013-07-18 20:07:00,74.8,70.9,29.96,SSE,152,4.0,9.0,88,0.00,,,0.00,0,HR-IXPWINDi_r2_v1.2.,2013-07-19 00:07:00,
2013-07-18 20:12:00,74.6,70.8,29.96,ESE,119,7.0,11.0,88,0.00,,,0.00,0,HR-IXPWINDi_r2_v1.2.,2013-07-19 00:12:00,
2013-07-18 20:17:00,74.5,70.7,29.96,SE,143,3.0,11.0,88,0.00,,,0.00,0,HR-IXPWINDi_r2_v1.2.,2013-07-19 00:17:00,
2013-07-18 20:23:00,74.5,70.7,29.95,SE,132,6.0,10.0,88,0.00,,,0.00,0,HR-IXPWINDi_r2_v1.2.,2013-07-19 00:23:00,
2013-07-18 20:28:00,74.4,70.9,29.95,SE,130,3.0,8.0,89,0.00,,,0.00,0,HR-IXPWINDi_r2_v1.2.,2013-07-19 00:28:00,
2013-07-18 20:33:00,74.4,70.9,29.95,SE,140,0.0,8.0,89,0.00,,,0.00,0,HR-IXPWINDi_r2_v1.2.,2013-07-19 00:33:00,
2013-07-18 20:38:00,74.3,70.8,29.95,ESE,117,5.0,9.0,89,0.00,,,0.00,0,HR-IXPWINDi_r2_v1.2.,2013-07-19 00:38:00,
2013-07-18 20:44:00,74.4,70.9,29.95,SE,140,6.0,9.0,89,0.00,,,0.00,0,HR-IXPWINDi_r2_v1.2.,2013-07-19 00:44:00,
2013-07-18 20:49:00,74.5,71.0,29.95,SE,134,3.0,10.0,89,0.00,,,0.00,0,HR-IXPWINDi_r2_v1.2.,2013-07-19 00:49:00,
2013-07-18 20:54:00,74.5,71.0,29.95,SSW,204,3.0,10.0,89,0.00,,,0.00,0,HR-IXPWINDi_r2_v1.2.,2013-07-19 00:54:00,
2013-07-18 20:59:00,74.5,71.0,29.95,SSE,167,7.0,10.0,89,0.00,,,0.00,0,HR-IXPWINDi_r2_v1.2.,2013-07-19 00:59:00,
2013-07-18 21:05:00,74.4,70.9,29.95,SSE,163,5.0,11.0,89,0.00,,,0.00,0,HR-IXPWINDi_r2_v1.2.,2013-07-19 01:05:00,
2013-07-18 21:10:00,74.3,71.1,29.95,SSE,155,7.0,11.0,90,0.00,,,0.00,0,HR-IXPWINDi_r2_v1.2.,2013-07-19 01:10:00,
2013-07-18 21:15:00,74.3,71.1,29.95,SSE,166,6.0,10.0,90,0.00,,,0.00,0,HR-IXPWINDi_r2_v1.2.,2013-07-19 01:15:00,
2013-07-18 21:20:00,74.2,71.0,29.95,SSE,151,4.0,9.0,90,0.00,,,0.00,0,HR-IXPWINDi_r2_v1.2.,2013-07-19 01:20:00,
2013-07-18 21:25:00,74.3,71.1,29.96,SE,143,4.0,8.0,90,0.00,,,0.00,0,HR-IXPWINDi_r2_v1.2.,2013-07-19 01:25:00,
2013-07-18 21:30:00,74.4,71.2,29.96,SSE,148,3.0,7.0,90,0.00,,,0.00,0,HR-IXPWINDi_r2_v1.2.,2013-07-19 01:30:00,
2013-07-18 21:35:00,74.4,71.2,29.96,SE,144,1.0,5.0,90,0.00,,,0.00,0,HR-IXPWINDi_r2_v1.2.,2013-07-19 01:35:00,
2013-07-18 21:41:00,74.6,71.4,29.96,SE,130,0.0,4.0,90,0.00,,,0.00,0,HR-IXPWINDi_r2_v1.2.,2013-07-19 01:41:00,
2013-07-18 21:46:00,74.9,71.7,29.96,SSE,152,1.0,3.0,90,0.00,,,0.00,0,HR-IXPWINDi_r2_v1.2.,2013-07-19 01:46:00,
2013-07-18 21:51:00,75.4,72.2,29.96,South,177,5.0,8.0,90,0.00,,,0.00,0,HR-IXPWINDi_r2_v1.2.,2013-07-19 01:51:00,
2013-07-18 21:56:00,75.9,72.4,29.96,South,174,4.0,8.0,89,0.00,,,0.00,0,HR-IXPWINDi_r2_v1.2.,2013-07-19 01:56:00,
2013-07-18 22:02:00,76.4,72.9,29.96,South,182,3.0,8.0,89,0.00,,,0.00,0,HR-IXPWINDi_r2_v1.2.,2013-07-19 02:02:00,
2013-07-18 22:07:00,76.6,72.7,29.95,South,184,4.0,8.0,88,0.00,,,0.00,0,HR-IXPWINDi_r2_v1.2.,2013-07-19 02:07:00,
2013-07-18 22:12:00,76.9,73.0,29.95,South,186,6.0,9.0,88,0.00,,,0.00,0,HR-IXPWINDi_r2_v1.2.,2013-07-19 02:12:00,
2013-07-18 22:17:00,77.2,73.0,29.95,South,182,6.0,9.0,87,0.00,,,0.00,0,HR-IXPWINDi_r2_v1.2.,2013-07-19 02:17:00,
2013-07-18 22:22:00,77.4,73.2,29.95,South,187,7.0,9.0,87,0.00,,,0.00,0,HR-IXPWINDi_r2_v1.2.,2013-07-19 02:22:00,
2013-07-18 22:28:00,77.5,73.3,29.95,South,179,4.0,9.0,87,0.00,,,0.00,0,HR-IXPWINDi_r2_v1.2.,2013-07-19 02:28:00,
2013-07-18 22:33:00,77.8,73.2,29.95,South,181,3.0,6.0,86,0.00,,,0.00,0,HR-IXPWINDi_r2_v1.2.,2013-07-19 02:33:00,
2013-07-18 22:38:00,77.9,73.3,29.95,South,180,3.0,6.0,86,0.00,,,0.00,0,HR-IXPWINDi_r2_v1.2.,2013-07-19 02:38:00,
2013-07-18 22:44:00,77.9,73.3,29.95,SSE,165,3.0,6.0,86,0.00,,,0.00,0,HR-IXPWINDi_r2_v1.2.,2013-07-19 02:44:00,
2013-07-18 22:49:00,77.7,73.1,29.95,South,174,2.0,6.0,86,0.00,,,0.00,0,HR-IXPWINDi_r2_v1.2.,2013-07-19 02:49:00,
2013-07-18 22:54:00,77.7,73.1,29.95,South,175,3.0,6.0,86,0.00,,,0.00,0,HR-IXPWINDi_r2_v1.2.,2013-07-19 02:54:00,
2013-07-18 22:59:00,77.6,73.0,29.95,South,182,5.0,6.0,86,0.00,,,0.00,0,HR-IXPWINDi_r2_v1.2.,2013-07-19 02:59:00,
2013-07-18 23:04:00,77.6,73.4,29.94,South,184,6.0,8.0,87,0.00,,,0.00,0,HR-IXPWINDi_r2_v1.2.,2013-07-19 03:04:00,
2013-07-18 23:10:00,77.5,73.6,29.94,South,185,7.0,8.0,88,0.00,,,0.00,0,HR-IXPWINDi_r2_v1.2.,2013-07-19 03:10:00,
2013-07-18 23:15:00,77.6,73.7,29.94,South,183,6.0,8.0,88,0.00,,,0.00,0,HR-IXPWINDi_r2_v1.2.,2013-07-19 03:15:00,
2013-07-18 23:20:00,77.7,73.8,29.94,South,190,6.0,8.0,88,0.00,,,0.00,0,HR-IXPWINDi_r2_v1.2.,2013-07-19 03:20:00,
2013-07-18 23:25:00,77.7,73.8,29.94,SSW,197,6.0,8.0,88,0.00,,,0.00,0,HR-IXPWINDi_r2_v1.2.,2013-07-19 03:25:00,
2013-07-18 23:31:00,77.8,73.9,29.94,West,279,3.0,8.0,88,0.00,,,0.00,0,HR-IXPWINDi_r2_v1.2.,2013-07-19 03:31:00,
2013-07-18 23:36:00,78.3,74.1,29.94,WNW,303,2.0,7.0,87,0.00,,,0.00,0,HR-IXPWINDi_r2_v1.2.,2013-07-19 03:36:00,
2013-07-18 23:41:00,78.7,74.1,29.94,NW,326,5.0,6.0,86,0.00,,,0.00,0,HR-IXPWINDi_r2_v1.2.,2013-07-19 03:41:00,
2013-07-18 23:46:00,78.4,73.5,29.94,NE,35,2.0,8.0,85,0.00,,,0.00,0,HR-IXPWINDi_r2_v1.2.,2013-07-19 03:46:00,
2013-07-18 23:52:00,77.8,72.9,29.94,North,350,3.0,8.0,85,0.00,,,0.00,0,HR-IXPWINDi_r2_v1.2.,2013-07-19 03:52:00,
2013-07-18 23:57:00,77.1,72.2,29.94,North,5,6.0,7.0,85,0.00,,,0.00,0,HR-IXPWINDi_r2_v1.2.,2013-07-19 03:57:00,